Weather History for KT65 - March, 2013

Change the Weather History Date:

Sunday, March 24, 2013

  Actual Average (KMFE) Record (KMFE)
Temperature  
Mean Temperature 66 °F 73 °F  
Max Temperature 76 °F 84 °F 100 °F (1945)
Min Temperature 58 °F 61 °F 37 °F (1889)
Degree Days  
Heating Degree Days 0 1  
Month to date heating degree days 35  
Since 1 July heating degree days 568  
Cooling Degree Days 2 8  
Month to date cooling degree days 155  
Year to date cooling degree days 314  
Growing Degree Days 16 (Base 50)    
Moisture  
Dew Point 41 °F    
Average Humidity 49    
Maximum Humidity 93    
Minimum Humidity 10    
Precipitation  
Precipitation 0.00 in 0.04 in 0.29 in (1967)
Month to date precipitation 0.80  
Year to date precipitation 2.96  
Sea Level Pressure  
Sea Level Pressure 29.92 in    
Wind  
Wind Speed 8 mph (NNE)    
Max Wind Speed 25 mph    
Max Gust Speed 41 mph    
Visibility 7 miles    
Events Fog    
T = Trace of Precipitation, MM = Missing Value Source: NWS Daily Summary

Daily Weather History Graph

Daily Weather History Graph

Search for Another Location

Airport or City:

Trip Planner

Search our weather history database for the weather conditions in past years. The results will help you decide how hot, cold, wet, or windy it might be!

Date:

Astronomy

Mar. 24, 2013 Rise Set
Actual Time 7:31 AM CDT 7:45 PM CDT
Civil Twilight 7:08 AM CDT 8:08 PM CDT
Nautical Twilight 6:41 AM CDT 8:35 PM CDT
Astronomical Twilight 6:14 AM CDT 9:02 PM CDT
Moon 5:26 PM CDT (3/24) 5:28 AM CDT (3/24)
Length of Visible Light 13h 00m
Length of Day
12h 13m
Waxing Gibbous, 92% of the Moon is Illuminated
Mar 24
Waxing Gibbous
Mar 27
Full
Apr 2
Last Quarter
Apr 10
New
Apr 18
First Quarter

Hourly Weather History & Observations

Time (CDT) Temp. Dew Point Humidity Pressure Visibility Wind Dir Wind Speed Gust Speed Precip Events Conditions
12:15 AM 70.2 °F 65.3 °F 85% 29.68 in 7.0 mi SSE 4.6 mph - N/A   Clear
12:35 AM 69.4 °F 64.8 °F 85% 29.69 in 7.0 mi SSE 5.8 mph - N/A   Clear
12:55 AM 69.4 °F 64.4 °F 84% 29.70 in 7.0 mi Calm Calm - N/A   Clear
1:15 AM 68.9 °F 64.6 °F 86% 29.70 in 5.0 mi Calm Calm - N/A   Clear
1:35 AM 68.9 °F 64.6 °F 86% 29.70 in 5.0 mi Calm Calm - N/A   Clear
1:55 AM 68.5 °F 64.6 °F 87% 29.71 in 5.0 mi Calm Calm - N/A   Clear
2:15 AM 67.8 °F 64.0 °F 88% 29.70 in 5.0 mi Calm Calm - N/A   Clear
2:35 AM 65.8 °F 62.6 °F 89% 29.72 in 3.0 mi Calm Calm - N/A   Scattered Clouds
2:55 AM 65.7 °F 63.0 °F 91% 29.73 in 1.2 mi Calm Calm - N/A   Mostly Cloudy
3:15 AM 66.6 °F 63.9 °F 91% 29.73 in 4.0 mi Calm Calm - N/A   Overcast
3:35 AM 68.0 °F 64.8 °F 89% 29.73 in 4.0 mi Calm Calm - N/A   Overcast
3:55 AM 67.8 °F 64.8 °F 90% 29.72 in 2.0 mi South 6.9 mph - N/A   Overcast
4:15 AM 67.3 °F 64.6 °F 91% 29.74 in 0.8 mi South 4.6 mph - N/A   Overcast
4:35 AM 67.1 °F 64.4 °F 91% 29.74 in 0.5 mi SSW 4.6 mph - N/A Fog Fog
4:55 AM 67.1 °F 64.6 °F 92% 29.73 in 0.5 mi South 9.2 mph - N/A Fog Fog
5:15 AM 66.7 °F 64.4 °F 92% 29.73 in 0.5 mi South 9.2 mph - N/A Fog Fog
5:35 AM 66.6 °F 64.4 °F 93% 29.73 in 1.0 mi SSW 5.8 mph - N/A   Overcast
5:55 AM 66.6 °F 64.4 °F 93% 29.75 in 3.0 mi Calm Calm - N/A   Overcast
6:15 AM 67.1 °F 64.4 °F 91% 29.75 in 3.0 mi Calm Calm - N/A   Overcast
6:35 AM 66.9 °F 64.4 °F 92% 29.77 in 2.0 mi Calm Calm - N/A   Overcast
6:55 AM 66.9 °F 64.4 °F 92% 29.78 in 1.5 mi Calm Calm - N/A   Overcast
7:15 AM 67.1 °F 64.4 °F 91% 29.79 in 0.5 mi NNW 3.5 mph - N/A Fog Fog
7:35 AM 67.1 °F 64.6 °F 92% 29.86 in 0.5 mi NNW 16.1 mph 20.7 mph N/A Fog Fog
7:55 AM 66.2 °F 63.5 °F 91% 29.86 in 2.5 mi North 11.5 mph - N/A   Mostly Cloudy
8:15 AM 67.1 °F 62.2 °F 84% 29.87 in 5.0 mi NNW 15.0 mph 20.7 mph N/A   Haze
8:35 AM 69.8 °F 60.8 °F 73% 29.89 in 7.0 mi NNW 21.9 mph 29.9 mph N/A   Clear
8:55 AM 69.4 °F 60.3 °F 73% 29.91 in 7.0 mi North 21.9 mph 34.5 mph N/A   Mostly Cloudy
9:15 AM 68.5 °F 61.7 °F 79% 29.94 in 5.0 mi North 23.0 mph 33.4 mph N/A   Haze
9:35 AM 66.2 °F 59.5 °F 79% 29.98 in 4.0 mi North 24.2 mph 41.4 mph N/A   Haze
9:55 AM 64.0 °F 56.3 °F 76% 29.99 in 5.0 mi North 20.7 mph 32.2 mph N/A   Haze
10:15 AM 65.3 °F 55.0 °F 69% 30.01 in 7.0 mi North 18.4 mph 27.6 mph N/A   Overcast
10:35 AM 66.2 °F 53.1 °F 63% 30.03 in 10.0 mi North 17.3 mph 26.5 mph N/A   Overcast
10:55 AM 67.5 °F 49.3 °F 52% 30.04 in 10.0 mi North 17.3 mph 28.8 mph N/A   Overcast
11:15 AM 69.1 °F 47.5 °F 46% 30.04 in 10.0 mi North 18.4 mph 25.3 mph N/A   Overcast
11:35 AM 69.8 °F 44.4 °F 40% 30.05 in 10.0 mi North 21.9 mph 31.1 mph N/A   Overcast
11:55 AM 71.1 °F 42.1 °F 35% 30.05 in 10.0 mi North 20.7 mph 32.2 mph N/A   Mostly Cloudy
12:15 PM 72.1 °F 32.2 °F 23% 30.04 in 10.0 mi North 20.7 mph 32.2 mph N/A   Scattered Clouds
12:35 PM 73.0 °F 33.1 °F 23% 30.04 in 10.0 mi North 19.6 mph 27.6 mph N/A   Clear
12:55 PM 74.1 °F 29.5 °F 19% 30.03 in 10.0 mi North 19.6 mph 29.9 mph N/A   Clear
1:15 PM 74.8 °F 25.5 °F 16% 30.03 in 10.0 mi North 17.3 mph 27.6 mph N/A   Clear
1:35 PM 75.0 °F 30.9 °F 20% 30.02 in 10.0 mi North 15.0 mph 25.3 mph N/A   Clear
1:55 PM 74.7 °F 23.9 °F 15% 30.02 in 10.0 mi North 24.2 mph 31.1 mph N/A   Scattered Clouds
2:15 PM 75.0 °F 23.5 °F 15% 30.01 in 10.0 mi North 16.1 mph 27.6 mph N/A   Scattered Clouds
2:35 PM 75.4 °F 23.0 °F 14% 30.01 in 10.0 mi North 25.3 mph 29.9 mph N/A   Scattered Clouds
2:55 PM 74.3 °F 18.1 °F 12% 30.00 in 10.0 mi North 17.3 mph 26.5 mph N/A   Mostly Cloudy
3:15 PM 75.7 °F 20.7 °F 13% 29.99 in 10.0 mi North 13.8 mph 27.6 mph N/A   Scattered Clouds
3:35 PM 75.4 °F 19.6 °F 12% 29.98 in 10.0 mi North 13.8 mph 25.3 mph N/A   Clear
3:55 PM 75.4 °F 19.6 °F 12% 29.98 in 10.0 mi North 16.1 mph 23.0 mph N/A   Clear
4:15 PM 75.7 °F 17.4 °F 11% 29.97 in 10.0 mi North 13.8 mph 27.6 mph N/A   Clear
4:35 PM 75.7 °F 17.2 °F 11% 29.96 in 10.0 mi North 15.0 mph 21.9 mph N/A   Clear
4:55 PM 75.6 °F 16.7 °F 11% 29.96 in 10.0 mi NNE 16.1 mph 23.0 mph N/A   Clear
5:15 PM 75.4 °F 16.2 °F 11% 29.96 in 10.0 mi NNE 16.1 mph 23.0 mph N/A   Clear
5:35 PM 74.5 °F 15.1 °F 10% 29.96 in 10.0 mi North 12.7 mph 20.7 mph N/A   Clear
5:55 PM 73.9 °F 15.3 °F 11% 29.96 in 10.0 mi North 13.8 mph 19.6 mph N/A   Clear
6:15 PM 73.0 °F 15.3 °F 11% 29.96 in 10.0 mi NNE 16.1 mph 21.9 mph N/A   Clear
6:35 PM 72.0 °F 15.1 °F 11% 29.96 in 10.0 mi North 10.4 mph 17.3 mph N/A   Clear
6:55 PM 70.9 °F 14.9 °F 12% 29.97 in 10.0 mi North 11.5 mph 18.4 mph N/A   Clear
7:15 PM 69.6 °F 14.7 °F 12% 29.98 in 10.0 mi North 8.1 mph - N/A   Clear
7:35 PM 68.2 °F 15.1 °F 13% 29.99 in 10.0 mi North 8.1 mph - N/A   Clear
7:55 PM 67.1 °F 16.0 °F 14% 30.00 in 10.0 mi NNE 11.5 mph - N/A   Clear
8:15 PM 65.7 °F 15.8 °F 15% 30.01 in 10.0 mi NE 10.4 mph - N/A   Clear
8:35 PM 64.6 °F 15.8 °F 15% 30.02 in 10.0 mi NE 8.1 mph - N/A   Clear
8:55 PM 64.4 °F 16.0 °F 15% 30.03 in 10.0 mi NE 8.1 mph - N/A   Clear
9:15 PM 62.8 °F 16.5 °F 17% 30.04 in 10.0 mi NE 6.9 mph - N/A   Clear
9:35 PM 61.5 °F 18.0 °F 19% 30.05 in 10.0 mi NE 5.8 mph - N/A   Clear
9:55 PM 61.0 °F 18.7 °F 19% 30.06 in 10.0 mi ENE 4.6 mph - N/A   Clear
10:15 PM 59.5 °F 22.6 °F 24% 30.06 in 10.0 mi ENE 3.5 mph - N/A   Clear
10:35 PM 58.6 °F 28.9 °F 32% 30.08 in 10.0 mi ENE 4.6 mph - N/A   Clear
10:55 PM 58.8 °F 30.9 °F 35% 30.08 in 10.0 mi NE 6.9 mph - N/A   Clear
11:15 PM 58.5 °F 30.7 °F 35% 30.08 in 10.0 mi NE 5.8 mph - N/A   Clear
11:35 PM 58.6 °F 30.2 °F 34% 30.08 in 10.0 mi ENE 5.8 mph - N/A   Clear
11:55 PM 58.1 °F 30.2 °F 35% 30.07 in 10.0 mi NE 6.9 mph - N/A   Clear